Home > Time Zones > World Clock > Weather > Japan > Tsu > Past weeks

Flag for Japan Weather past 2 weeks in Tsu, Japan

Now
78 °F

Warm.


Feels Like: 80 °F
Forecast: 73 / 85 °F
Wind: 3 mph from Northwest

Location: Tsu

Current Time: Aug 23, 2014 at 3:17:16 AM

Latest Report: Aug 23, 2014 at 2:00 AM


Visibility: N/A

Pressure: 29.87 "Hg

Humidity: 87%

Dew point: 74 °F

Location of TsuLocation

Historic Weather in Tsu — Graph

°F

Tsu temperature yesterday

Maximum temperature yesterday: 87 °F (at 1:00 PM)
Minimum temperature yesterday: 77 °F (at 5:00 AM)
Average temperature yesterday: 81 °F

Past Weeks' High & Low Weather Summary

 TemperatureHumidityPressure
High92 °F (Aug 11, 2:00 PM)97% (Aug 14, 11:00 AM)30.01 "Hg (Aug 14, 11:00 AM)
Low72 °F (Aug 9, 9:00 AM)44% (Aug 11, 2:00 PM)29.21 "Hg (Aug 10, 1:00 PM)
Average81 °F82%29.79 "Hg
* Reported Aug 8 2:00 AM — Aug 23 2:00 AM, Tsu, Weather by CustomWeather, © 2014

Note: Actual official high and low records may vary slightly from our data, if they occured in-between our weather recording intervals... More about our weather records

Advertising

Tsu weather history for previous 24 hours

 ConditionsComfort  
Time TempWeatherWind HumidityBarometerVisibility
2:00 AM
Aug 23
78 °FWarm.3 mph87%29.87 "HgN/A
1:00 AM78 °FWarm.3 mph86%29.89 "HgN/A
12:00 AM78 °FWarm.3 mph86%29.89 "HgN/A
11:00 PM
Aug 22
78 °FWarm.5 mph88%29.87 "HgN/A
10:00 PM79 °FWarm.5 mph88%29.86 "HgN/A
9:00 PM79 °FOvercast.6 mph87%29.88 "Hg12 mi
8:00 PM80 °FWarm.2 mph82%29.88 "HgN/A
7:00 PM80 °FWarm.3 mph79%29.85 "HgN/A
6:00 PM80 °FWarm.6 mph80%29.86 "HgN/A
5:00 PM80 °FWarm.6 mph86%29.86 "HgN/A
4:00 PM79 °FWarm.7 mph83%29.88 "HgN/A
3:00 PM84 °FThundershowers. Overcast.7 mph68%29.87 "Hg16 mi
2:00 PM84 °FWarm.9 mph76%29.88 "HgN/A
1:00 PM87 °FWarm.9 mph69%29.89 "HgN/A
12:00 PM87 °FWarm.7 mph68%29.91 "HgN/A
11:00 AM85 °FWarm.7 mph75%29.93 "HgN/A
10:00 AM84 °FWarm.5 mph72%29.95 "HgN/A
9:00 AM84 °FPassing clouds.5 mph76%29.94 "Hg9 mi
8:00 AM81 °FWarm.2 mph83%29.95 "HgN/A
7:00 AM80 °FWarm.2 mph86%29.93 "HgN/A
6:00 AM78 °FWarm.5 mph88%29.93 "HgN/A
5:00 AM77 °FWarm.3 mph88%29.92 "HgN/A
4:00 AM78 °FWarm.5 mph86%29.92 "HgN/A
3:00 AM78 °FWarm.5 mph82%29.93 "HgN/A
Weather by CustomWeather, © 2014

See weather overviewHow to use our weather pages